User: anonymous   Login
Location: Unspecified
(0.0000°N, 0.0000°E)
Time: 09:55:04
(UTC+01:00)
Language:

Cosmos 1782 Rocket - Orbit

View from above orbital plane
View from above orbital plane
View from above satellite
View from above satellite

Ground track
Ground track

The orbit data is extracted from the following two-line orbital elements,

1 16987U 86074B   17057.55699934  .00000102  00000-0  96778-5 0  9991
2 16987  82.5143  54.0209 0016674 264.7974 234.9612 14.82947487642079
Epoch (UTC): 26 February 2017 13:22:04
Eccentricity: 0.0016674
inclination: 82.5143°
perigee height: 608 km
apogee height: 632 km
right ascension of ascending node: 54.0209°
argument of perigee: 264.7974°
revolutions per day: 14.82947487
mean anomaly at epoch: 234.9612°
orbit number at epoch: 64207

The dashed part of the orbit path shows where the satellite is in the earth's shadow,  

DLR